Pagosa Springs, CO

11:42 AM MST on February 10, 2016 (GMT -0700)
Pagosa Springs

Weather History for KPSO - February, 2014

Change the Weather History Date:

Sunday, February 23, 2014

  Actual Average (KDRO) Record (KDRO)
Temperature  
Mean Temperature 36 °F 31 °F  
Max Temperature 51 °F 45 °F 63 °F (1981)
Min Temperature 21 °F 17 °F 0 °F (1975)
Degree Days  
Heating Degree Days 29 34  
Month to date heating degree days 856  
Since 1 July heating degree days 5010  
Cooling Degree Days 0 0  
Month to date cooling degree days 0  
Year to date cooling degree days 0  
Moisture  
Dew Point 13 °F    
Average Humidity 46    
Maximum Humidity 77    
Minimum Humidity 16    
Precipitation  
Precipitation 0.00 in 0.04 in 0.71 in (2015)
Month to date precipitation 0.97  
Year to date precipitation 2.09  
Sea Level Pressure  
Sea Level Pressure 30.11 in    
Wind  
Wind Speed 2 mph (SSW)    
Max Wind Speed 13 mph    
Max Gust Speed 23 mph    
Visibility 10 miles    
Events      
T = Trace of Precipitation, MM = Missing Value Source: NWS Daily Summary

Daily Weather History Graph

Daily Weather History Graph

Search for Another Location

Airport or City:

Trip Planner

Search our weather history database for the weather conditions in past years. The results will help you decide how hot, cold, wet, or windy it might be!

Date:

Astronomy

Feb. 23, 2014 Rise Set
Actual Time 6:47 AM MST 5:56 PM MST
Civil Twilight 6:20 AM MST 6:22 PM MST
Nautical Twilight 5:50 AM MST 6:53 PM MST
Astronomical Twilight 5:20 AM MST 7:23 PM MST
Moon 1:44 AM MST (2/23) 12:05 PM MST (2/23)
Length of Visible Light 12h 01m
Length of Day
11h 09m
Last Quarter, 38% of the Moon is Illuminated
Feb 23
Last Quarter
Mar 1
New
Mar 8
First Quarter
Mar 16
Full
Mar 23
Last Quarter

Hourly Weather History & Observations

Time (MST) Temp. Windchill Dew Point Humidity Pressure Visibility Wind Dir Wind Speed Gust Speed Precip Events Conditions
12:15 AM 27.0 °F - 17.1 °F 66% 30.05 in 10.0 mi Calm Calm - N/A   Clear
12:35 AM 27.3 °F - 16.9 °F 65% 30.05 in 10.0 mi Calm Calm - N/A   Clear
12:55 AM 28.4 °F - 14.9 °F 57% 30.05 in 10.0 mi Calm Calm - N/A   Clear
1:15 AM 26.2 °F - 18.3 °F 72% 30.05 in 10.0 mi Calm Calm - N/A   Clear
1:35 AM 25.5 °F - 16.0 °F 67% 30.06 in 10.0 mi Calm Calm - N/A   Clear
1:55 AM 25.9 °F 21.7 °F 14.5 °F 62% 30.07 in 10.0 mi NNE 3.5 mph - N/A   Clear
2:15 AM 25.9 °F - 15.3 °F 64% 30.07 in 10.0 mi Calm Calm - N/A   Clear
2:35 AM 24.8 °F - 15.8 °F 69% 30.07 in 10.0 mi Calm Calm - N/A   Clear
2:55 AM 25.5 °F - 16.3 °F 68% 30.07 in 10.0 mi Calm Calm - N/A   Clear
3:15 AM 25.2 °F 20.9 °F 15.4 °F 67% 30.07 in 10.0 mi NE 3.5 mph - N/A   Clear
3:35 AM 24.3 °F 19.9 °F 15.4 °F 69% 30.07 in 10.0 mi NE 3.5 mph - N/A   Clear
3:55 AM 24.4 °F - 15.8 °F 70% 30.07 in 10.0 mi Calm Calm - N/A   Clear
4:15 AM 25.9 °F 21.7 °F 15.1 °F 64% 30.07 in 10.0 mi NE 3.5 mph - N/A   Clear
4:35 AM 23.4 °F - 16.0 °F 73% 30.07 in 10.0 mi Calm Calm - N/A   Clear
4:55 AM 23.4 °F - 15.3 °F 71% 30.08 in 10.0 mi Calm Calm - N/A   Clear
5:15 AM 22.5 °F - 15.8 °F 76% 30.09 in 10.0 mi Calm Calm - N/A   Clear
5:35 AM 22.8 °F - 14.7 °F 71% 30.09 in 10.0 mi Calm Calm - N/A   Clear
5:55 AM 21.6 °F - 14.7 °F 75% 30.09 in 10.0 mi Calm Calm - N/A   Clear
6:15 AM 23.7 °F - 15.8 °F 72% 30.10 in 10.0 mi Calm Calm - N/A   Clear
6:35 AM 22.1 °F - 15.6 °F 76% 30.11 in 10.0 mi Calm Calm - N/A   Clear
6:55 AM 21.4 °F - 15.3 °F 77% 30.12 in 10.0 mi Calm Calm - N/A   Clear
7:15 AM 21.9 °F - 14.9 °F 74% 30.12 in 10.0 mi Calm Calm - N/A   Clear
7:35 AM 23.4 °F - 16.2 °F 74% 30.14 in 10.0 mi Calm Calm - N/A   Clear
7:55 AM 27.0 °F - 18.0 °F 69% 30.15 in 10.0 mi Calm Calm - N/A   Clear
8:15 AM 30.2 °F - 14.9 °F 53% 30.16 in 10.0 mi Calm Calm - N/A   Clear
8:35 AM 32.0 °F - 14.2 °F 48% 30.16 in 10.0 mi Calm Calm - N/A   Clear
8:55 AM 32.4 °F - 12.4 °F 44% 30.16 in 10.0 mi Calm Calm - N/A   Clear
9:15 AM 33.8 °F - 14.9 °F 46% 30.16 in 10.0 mi Calm Calm - N/A   Clear
9:35 AM 36.9 °F - 13.3 °F 38% 30.16 in 10.0 mi Calm Calm - N/A   Clear
9:55 AM 39.4 °F - 12.4 °F 33% 30.16 in 10.0 mi Calm Calm - N/A   Clear
10:15 AM 40.1 °F - 11.1 °F 31% 30.16 in 10.0 mi Calm Calm - N/A   Clear
10:35 AM 40.1 °F - 11.1 °F 31% 30.16 in 10.0 mi Calm Calm - N/A   Clear
10:55 AM 42.6 °F - 11.5 °F 28% 30.16 in 10.0 mi Calm Calm - N/A   Clear
11:15 AM 42.6 °F - 11.3 °F 28% 30.16 in 10.0 mi Calm Calm - N/A   Clear
11:35 AM 43.7 °F - 10.0 °F 25% 30.15 in 10.0 mi Calm Calm - N/A   Clear
11:55 AM 44.8 °F 41.6 °F 10.9 °F 25% 30.14 in 10.0 mi South 5.8 mph - N/A   Clear
12:15 PM 46.4 °F 43.5 °F 9.3 °F 22% 30.13 in 10.0 mi SSW 5.8 mph - N/A   Clear
12:35 PM 46.8 °F - 9.9 °F 22% 30.12 in 10.0 mi South 5.8 mph - N/A   Clear
12:55 PM 48.0 °F - 6.4 °F 18% 30.11 in 10.0 mi South 9.2 mph - N/A   Clear
1:15 PM 48.7 °F - 4.6 °F 17% 30.10 in 10.0 mi SSW 4.6 mph - N/A   Clear
1:35 PM 50.2 °F - 5.9 °F 17% 30.10 in 10.0 mi SSW 8.1 mph - N/A   Clear
1:55 PM 50.0 °F - 5.5 °F 16% 30.09 in 10.0 mi SSW 3.5 mph - N/A   Clear
2:15 PM 50.4 °F - 6.8 °F 17% 30.09 in 10.0 mi West 8.1 mph - N/A   Clear
2:35 PM 50.5 °F - 7.5 °F 18% 30.09 in 10.0 mi SSW 9.2 mph 17.3 mph N/A   Clear
2:55 PM 50.7 °F - 6.4 °F 17% 30.09 in 10.0 mi SW 8.1 mph 19.6 mph N/A   Clear
3:15 PM 51.1 °F - 9.0 °F 18% 30.08 in 10.0 mi SW 9.2 mph - N/A   Clear
3:35 PM 50.9 °F - 7.0 °F 17% 30.08 in 10.0 mi SW 9.2 mph 18.4 mph N/A   Clear
3:55 PM 51.1 °F - 8.4 °F 18% 30.09 in 10.0 mi WSW 11.5 mph 23.0 mph N/A   Clear
4:15 PM 50.4 °F - 6.6 °F 17% 30.09 in 10.0 mi SW 9.2 mph 16.1 mph N/A   Clear
4:35 PM 50.0 °F - 7.9 °F 18% 30.09 in 10.0 mi SW 12.7 mph 18.4 mph N/A   Clear
4:55 PM 49.3 °F - 9.7 °F 20% 30.09 in 10.0 mi SW 8.1 mph 17.3 mph N/A   Clear
5:15 PM 49.1 °F - 6.8 °F 18% 30.10 in 10.0 mi SW 10.4 mph 17.3 mph N/A   Clear
5:35 PM 48.2 °F - 7.9 °F 19% 30.10 in 10.0 mi SSW 5.8 mph - N/A   Clear
5:55 PM 46.8 °F - 7.9 °F 21% 30.11 in 10.0 mi SSW 6.9 mph - N/A   Clear
6:15 PM 44.2 °F 39.7 °F 12.6 °F 28% 30.12 in 10.0 mi South 8.1 mph - N/A   Clear
6:35 PM 43.9 °F 39.9 °F 8.2 °F 23% 30.13 in 10.0 mi SW 6.9 mph - N/A   Clear
6:55 PM 38.8 °F 34.6 °F 14.9 °F 38% 30.14 in 10.0 mi WSW 5.8 mph - N/A   Clear
7:15 PM 36.1 °F - 14.7 °F 42% 30.14 in 10.0 mi Calm Calm - N/A   Clear
7:35 PM 37.9 °F - 10.9 °F 33% 30.13 in 10.0 mi Calm Calm - N/A   Clear
7:55 PM 32.2 °F - 16.9 °F 53% 30.13 in 10.0 mi Calm Calm - N/A   Clear
8:15 PM 33.6 °F - 14.5 °F 46% 30.14 in 10.0 mi Calm Calm - N/A   Clear
8:35 PM 32.0 °F - 15.4 °F 51% 30.14 in 10.0 mi Calm Calm - N/A   Clear
8:55 PM 31.6 °F - 14.2 °F 49% 30.14 in 10.0 mi Calm Calm - N/A   Clear
9:15 PM 30.2 °F - 16.7 °F 57% 30.15 in 10.0 mi Calm Calm - N/A   Clear
9:35 PM 29.7 °F - 14.0 °F 52% 30.15 in 10.0 mi Calm Calm - N/A   Clear
9:55 PM 30.0 °F - 16.3 °F 57% 30.15 in 10.0 mi Calm Calm - N/A   Clear
10:15 PM 30.7 °F 24.1 °F 14.4 °F 51% 30.16 in 10.0 mi NNE 6.9 mph - N/A   Clear
10:35 PM 30.2 °F - 13.8 °F 51% 30.16 in 10.0 mi Calm Calm - N/A   Clear
10:55 PM 30.0 °F - 15.6 °F 55% 30.16 in 10.0 mi Calm Calm - N/A   Clear
11:15 PM 29.7 °F - 13.6 °F 51% 30.16 in 10.0 mi Calm Calm - N/A   Clear
11:35 PM 27.5 °F - 14.7 °F 59% 30.15 in 10.0 mi Calm Calm - N/A   Clear
11:55 PM 26.8 °F - 16.5 °F 65% 30.15 in 10.0 mi Calm Calm - N/A   Clear